Lamoni, IA

12:11 AM CDT on October 20, 2017 (GMT -0500)
Lamoni Municipal

Weather History for KLWD - December, 2011

Change the Weather History Date:

Monday, December 5, 2011

  Actual Average Record
Temperature  
Mean Temperature 23 °F 30 °F  
Max Temperature 27 °F 38 °F 66 °F (2001)
Min Temperature 19 °F 22 °F 1 °F (2005)
Degree Days  
Heating Degree Days 42 35  
Month to date heating degree days 174 171  
Since 1 July heating degree days 1327 1419  
Cooling Degree Days 0 0  
Month to date cooling degree days 0 0  
Year to date cooling degree days 1144 946  
Moisture  
Dew Point 16 °F    
Average Humidity 76    
Maximum Humidity 84    
Minimum Humidity 68    
Precipitation  
Precipitation 0.00 in 0.05 in 1.37 in (1982)
Month to date precipitation 1.72 0.27  
Year to date precipitation 35.43  
Sea Level Pressure  
Sea Level Pressure 30.43 in    
Wind  
Wind Speed 13 mph (North)    
Max Wind Speed 20 mph    
Max Gust Speed 26 mph    
Visibility 10 miles    
Events      
T = Trace of Precipitation, MM = Missing Value Source: NWS Daily Summary

Daily Weather History Graph

Daily Weather History Graph

Search for Another Location

Airport or City:

Trip Planner

Search our weather history database for the weather conditions in past years. The results will help you decide how hot, cold, wet, or windy it might be!

Date:

Astronomy

Dec. 05, 2011 Rise Set
Actual Time 7:23 AM CST 4:48 PM CST
Civil Twilight 6:53 AM CST 5:18 PM CST
Nautical Twilight 6:19 AM CST 5:53 PM CST
Astronomical Twilight 5:46 AM CST 6:26 PM CST
Moon 1:47 PM CST (12/5) 2:45 AM CST (12/5)
Length of Visible Light 10h 25m
Length of Day
9h 24m
Waxing Gibbous, 80% of the Moon is Illuminated
Dec 5
Waxing Gibbous
Dec 10
Full
Dec 17
Last Quarter
Dec 24
New
Jan 1
First Quarter

Hourly Weather History & Observations

Time (CST) Temp. Windchill Dew Point Humidity Pressure Visibility Wind Dir Wind Speed Gust Speed Precip Events Conditions
12:53 AM 24.1 °F 18.2 °F 18.0 °F 77% 30.38 in 10.0 mi NNW 4.6 mph - N/A   Overcast
1:53 AM 24.1 °F 15.2 °F 18.0 °F 77% 30.37 in 10.0 mi North 8.1 mph - N/A   Overcast
2:53 AM 24.1 °F 15.2 °F 17.1 °F 75% 30.40 in 10.0 mi North 8.1 mph - N/A   Overcast
3:53 AM 24.1 °F 14.4 °F 17.1 °F 75% 30.39 in 10.0 mi North 9.2 mph - N/A   Overcast
5:53 AM 23.0 °F 11.7 °F 16.0 °F 74% 30.38 in 10.0 mi NNE 11.5 mph - N/A   Overcast
6:53 AM 21.0 °F 10.6 °F 15.1 °F 78% 30.40 in 10.0 mi North 9.2 mph - N/A   Overcast
7:53 AM 21.9 °F 11.0 °F 15.1 °F 75% 30.45 in 10.0 mi North 10.4 mph - N/A   Overcast
8:53 AM 23.0 °F 12.4 °F 16.0 °F 74% 30.45 in 10.0 mi North 10.4 mph - N/A   Overcast
9:53 AM 23.0 °F 9.6 °F 16.0 °F 74% 30.48 in 10.0 mi North 16.1 mph 24.2 mph 0.01 in   Scattered Clouds
10:10 AM 23.0 °F 11.1 °F 15.8 °F 74% 30.43 in 10.0 mi North 12.7 mph - N/A   Mostly Cloudy
10:48 AM 24.8 °F 12.9 °F 15.8 °F 69% 30.43 in 10.0 mi NNE 13.8 mph - N/A   Scattered Clouds
10:53 AM 24.1 °F 13.7 °F 16.0 °F 71% 30.49 in 10.0 mi North 10.4 mph - N/A   Scattered Clouds
11:00 AM 24.8 °F 14.0 °F 15.8 °F 69% 30.43 in 10.0 mi North 11.5 mph - N/A   Mostly Cloudy
11:26 AM 24.8 °F 12.4 °F 15.8 °F 69% 30.42 in 10.0 mi North 15.0 mph - N/A   Scattered Clouds
11:53 AM 27.0 °F 16.1 °F 17.1 °F 66% 30.46 in 10.0 mi North 12.7 mph - 0.01 in   Mostly Cloudy
12:40 PM 26.6 °F 15.7 °F 17.6 °F 69% 30.38 in 10.0 mi NNW 12.7 mph 20.7 mph N/A   Scattered Clouds
12:53 PM 26.1 °F 14.5 °F 17.1 °F 69% 30.43 in 10.0 mi North 13.8 mph 23.0 mph 0.01 in   Mostly Cloudy
1:37 PM 24.8 °F 11.5 °F 15.8 °F 69% 30.37 in 10.0 mi NNW 17.3 mph 24.2 mph N/A   Scattered Clouds
1:53 PM 25.0 °F 11.3 °F 16.0 °F 69% 30.42 in 10.0 mi NNW 18.4 mph 23.0 mph N/A   Partly Cloudy
2:25 PM 24.8 °F 12.4 °F 17.6 °F 74% 30.36 in 10.0 mi North 15.0 mph 23.0 mph N/A   Mostly Cloudy
2:53 PM 25.0 °F 11.7 °F 17.1 °F 72% 30.42 in 10.0 mi NNW 17.3 mph - N/A   Mostly Cloudy
3:53 PM 23.0 °F 10.6 °F 15.1 °F 72% 30.43 in 10.0 mi North 13.8 mph 21.9 mph N/A   Overcast
4:53 PM 19.9 °F 6.2 °F 15.1 °F 81% 30.42 in 10.0 mi North 15.0 mph 21.9 mph N/A   Overcast
5:53 PM 19.9 °F 7.9 °F 14.0 °F 78% 30.43 in 10.0 mi North 11.5 mph - N/A   Overcast
6:53 PM 19.9 °F 5.2 °F 14.0 °F 78% 30.45 in 10.0 mi North 17.3 mph 24.2 mph N/A   Overcast
7:53 PM 19.9 °F 6.7 °F 14.0 °F 78% 30.47 in 10.0 mi North 13.8 mph - N/A   Overcast
8:53 PM 19.9 °F 7.3 °F 12.9 °F 74% 30.48 in 10.0 mi North 12.7 mph - N/A   Overcast
9:53 PM 19.9 °F 9.3 °F 14.0 °F 78% 30.48 in 10.0 mi North 9.2 mph - N/A   Overcast
10:53 PM 19.9 °F 6.7 °F 12.0 °F 71% 30.47 in 10.0 mi North 13.8 mph - N/A   Overcast
11:53 PM 19.0 °F 6.8 °F 12.9 °F 77% 30.45 in 10.0 mi North 11.5 mph - N/A   Overcast